Weather History for South St. Paul, MN

Change the Weather History Date:

Wednesday, January 30, 2013

  Actual Average (KMSP) Record (KMSP)
Temperature  
Mean Temperature 21 °F 16 °F  
Max Temperature 30 °F 25 °F 48 °F (1989)
Min Temperature 11 °F 8 °F -30 °F (1887)
Degree Days  
Heating Degree Days 44 49  
Month to date heating degree days 1486  
Since 1 July heating degree days 4509  
Cooling Degree Days 0 0  
Month to date cooling degree days 0  
Year to date cooling degree days 0  
Moisture  
Dew Point 12 °F    
Average Humidity 71    
Maximum Humidity 77    
Minimum Humidity 65    
Precipitation  
Precipitation 0.00 in 0.02 in 0.49 in (1878)
Month to date precipitation 0.87  
Year to date precipitation 0.87  
Snow  
Snow 0.00 in 0.40 in 3.60 in (1947)
Month to date snowfall 11.9  
Since 1 July snowfall 33.7  
Snow Depth -    
Sea Level Pressure  
Sea Level Pressure 29.66 in    
Wind  
Wind Speed 15 mph (NNW)    
Max Wind Speed 23 mph    
Max Gust Speed 30 mph    
Visibility 10 miles    
Events Snow    
T = Trace of Precipitation, MM = Missing Value Source: NWS Daily Summary

Daily Weather History Graph

Daily Weather History Graph

Search for Another Location

Airport:

Trip Planner

Search our weather history database for the weather conditions in past years. The results will help you decide how hot, cold, wet, or windy it might be!

Date:

Astronomy

Jan. 30, 2013 Rise Set
Actual Time 7:33 AM CST 5:18 PM CST
Civil Twilight 7:02 AM CST 5:49 PM CST
Nautical Twilight 6:26 AM CST 6:24 PM CST
Astronomical Twilight 5:52 AM CST 6:58 PM CST
Moon 9:30 PM CST (1/30) 8:50 AM CST (1/30)
Length of Visible Light 10h 47m
Length of Day
9h 44m
Waning Gibbous, 87% of the Moon is Illuminated
Jan 30
Waning Gibbous
Feb 3
Last Quarter
Feb 10
New
Feb 17
First Quarter
Feb 25
Full

Hourly Weather History & Observations

Time (CST) Temp. Windchill Dew Point Humidity Pressure Visibility Wind Dir Wind Speed Gust Speed Precip Events Conditions
12:12 AM 30.0 °F 18.3 °F 22.8 °F 75% 29.69 in 10.0 mi North 17.3 mph - N/A   Overcast
12:32 AM 29.7 °F 19.1 °F 21.9 °F 73% 29.69 in 10.0 mi North 13.8 mph 20.7 mph N/A   Overcast
12:52 AM 29.3 °F 18.6 °F 20.3 °F 69% 29.64 in 10.0 mi North 13.8 mph 25.3 mph N/A   Overcast
1:12 AM 28.6 °F 16.4 °F 20.1 °F 71% 29.65 in 10.0 mi North 17.3 mph 21.9 mph N/A   Mostly Cloudy
1:32 AM 27.7 °F 17.1 °F 19.4 °F 71% 29.66 in 10.0 mi North 12.7 mph 23.0 mph N/A   Scattered Clouds
1:52 AM 27.3 °F 15.2 °F 19.4 °F 72% 29.65 in 10.0 mi North 16.1 mph 21.9 mph N/A   Scattered Clouds
2:12 AM 26.8 °F 15.4 °F 19.2 °F 73% 29.65 in 10.0 mi North 13.8 mph 23.0 mph N/A   Scattered Clouds
2:52 AM 26.2 °F 14.7 °F 19.0 °F 74% 29.66 in 10.0 mi North 13.8 mph 21.9 mph N/A   Mostly Cloudy
3:12 AM 25.5 °F 13.8 °F 18.9 °F 76% 29.67 in 10.0 mi North 13.8 mph 21.9 mph N/A   Scattered Clouds
3:32 AM 25.2 °F 14.4 °F 18.5 °F 76% 29.67 in 10.0 mi North 11.5 mph 17.3 mph N/A   Clear
3:52 AM 24.8 °F 12.4 °F 18.3 °F 76% 29.66 in 10.0 mi North 15.0 mph 20.7 mph N/A   Clear
4:12 AM 24.8 °F 14.6 °F 18.5 °F 77% 29.67 in 10.0 mi North 10.4 mph - N/A   Scattered Clouds
4:32 AM 24.8 °F 14.0 °F 18.5 °F 77% 29.66 in 10.0 mi North 11.5 mph - N/A   Mostly Cloudy
4:52 AM 24.8 °F 14.6 °F 18.5 °F 77% 29.65 in 10.0 mi North 10.4 mph 17.3 mph N/A   Overcast
5:12 AM 25.0 °F 15.5 °F 18.5 °F 76% 29.66 in 10.0 mi NNW 9.2 mph - N/A   Overcast
5:32 AM 25.2 °F 15.7 °F 18.3 °F 75% 29.67 in 10.0 mi NNW 9.2 mph - N/A   Overcast
5:52 AM 25.3 °F 14.7 °F 18.0 °F 74% 29.65 in 10.0 mi North 11.5 mph 16.1 mph N/A   Overcast
6:12 AM 25.2 °F 15.1 °F 17.6 °F 73% 29.64 in 10.0 mi North 10.4 mph 19.6 mph N/A   Overcast
6:32 AM 24.8 °F 14.0 °F 17.6 °F 74% 29.63 in 10.0 mi NNW 11.5 mph 19.6 mph N/A   Overcast
6:52 AM 24.3 °F 11.7 °F 16.9 °F 73% 29.63 in 10.0 mi NNW 15.0 mph 21.9 mph N/A   Overcast
7:12 AM 23.4 °F 10.1 °F 16.2 °F 74% 29.62 in 10.0 mi North 16.1 mph 24.2 mph N/A   Overcast
7:32 AM 22.8 °F 8.9 °F 16.2 °F 76% 29.63 in 10.0 mi NNW 17.3 mph 24.2 mph N/A   Overcast
7:52 AM 22.1 °F 8.0 °F 15.8 °F 77% 29.63 in 10.0 mi North 17.3 mph 25.3 mph N/A   Overcast
8:12 AM 21.7 °F 9.0 °F 14.7 °F 74% 29.65 in 10.0 mi North 13.8 mph 19.6 mph N/A   Overcast
8:32 AM 20.8 °F 7.3 °F 13.8 °F 74% 29.65 in 10.0 mi North 15.0 mph 25.3 mph N/A   Overcast
8:52 AM 20.3 °F 5.2 °F 13.1 °F 74% 29.64 in 10.0 mi NNW 18.4 mph 23.0 mph N/A   Overcast
9:12 AM 19.8 °F 7.1 °F 12.2 °F 72% 29.65 in 10.0 mi North 12.7 mph 24.2 mph N/A   Overcast
9:32 AM 19.4 °F 6.0 °F 12.2 °F 74% 29.66 in 10.0 mi NNW 13.8 mph 20.7 mph N/A   Overcast
9:52 AM 19.0 °F 5.6 °F 11.3 °F 72% 29.66 in 10.0 mi NNW 13.8 mph 18.4 mph N/A   Overcast
10:12 AM 19.2 °F 5.3 °F 11.5 °F 72% 29.66 in 10.0 mi NNW 15.0 mph 20.7 mph N/A   Overcast
10:32 AM 18.5 °F 3.8 °F 10.2 °F 70% 29.65 in 10.0 mi NNW 16.1 mph 24.2 mph N/A   Overcast
10:52 AM 18.3 °F 4.6 °F 10.2 °F 71% 29.66 in 10.0 mi NNW 13.8 mph 21.9 mph N/A   Overcast
11:12 AM 18.3 °F 5.2 °F 10.0 °F 70% 29.65 in 10.0 mi NNW 12.7 mph 23.0 mph N/A   Overcast
11:32 AM 18.5 °F 4.9 °F 10.2 °F 70% 29.65 in 10.0 mi NNW 13.8 mph - N/A   Overcast
11:52 AM 18.3 °F 2.6 °F 9.7 °F 69% 29.65 in 10.0 mi NW 18.4 mph - N/A   Overcast
12:12 PM 18.3 °F 4.6 °F 9.5 °F 68% 29.65 in 10.0 mi NNW 13.8 mph 24.2 mph N/A   Overcast
12:32 PM 18.5 °F 3.3 °F 9.3 °F 67% 29.64 in 10.0 mi NNW 17.3 mph 24.2 mph N/A   Overcast
12:52 PM 18.3 °F 5.2 °F 9.5 °F 68% 29.64 in 10.0 mi North 12.7 mph 24.2 mph N/A   Overcast
1:12 PM 17.8 °F 1.1 °F 10.4 °F 73% 29.64 in 5.0 mi NNW 20.7 mph 24.2 mph N/A Snow Light Snow
1:32 PM 17.6 °F 3.7 °F 9.5 °F 71% 29.64 in 10.0 mi NNW 13.8 mph 21.9 mph N/A   Overcast
1:52 PM 17.6 °F 3.2 °F 8.6 °F 68% 29.64 in 10.0 mi NNW 15.0 mph 24.2 mph N/A   Overcast
2:12 PM 17.6 °F 2.7 °F 9.5 °F 71% 29.64 in 5.0 mi NNW 16.1 mph 23.0 mph N/A Snow Light Snow
2:32 PM 17.6 °F 3.2 °F 9.1 °F 69% 29.64 in 7.0 mi NNW 15.0 mph 21.9 mph N/A   Overcast
2:52 PM 17.4 °F 2.4 °F 8.4 °F 68% 29.64 in 10.0 mi NNW 16.1 mph 24.2 mph N/A   Overcast
3:12 PM 17.1 °F 2.0 °F 8.4 °F 69% 29.65 in 5.0 mi NW 16.1 mph 24.2 mph N/A Snow Light Snow
3:32 PM 16.7 °F 1.0 °F 7.7 °F 68% 29.65 in 10.0 mi North 17.3 mph 21.9 mph N/A   Overcast
3:52 PM 17.1 °F 3.0 °F 7.7 °F 67% 29.65 in 10.0 mi NNW 13.8 mph 18.4 mph N/A   Overcast
4:12 PM 17.2 °F 2.2 °F 7.7 °F 66% 29.65 in 10.0 mi NNW 16.1 mph 26.5 mph N/A   Overcast
4:32 PM 17.4 °F 2.9 °F 8.4 °F 68% 29.65 in 10.0 mi NW 15.0 mph - N/A   Overcast
4:52 PM 17.6 °F 2.7 °F 9.0 °F 69% 29.66 in 10.0 mi NW 16.1 mph 21.9 mph N/A   Overcast
5:12 PM 17.4 °F 2.4 °F 7.7 °F 66% 29.66 in 10.0 mi NNW 16.1 mph 25.3 mph N/A   Overcast
5:32 PM 17.1 °F -0.6 °F 8.4 °F 69% 29.67 in 10.0 mi NW 23.0 mph 29.9 mph N/A   Overcast
5:52 PM 16.7 °F 1.0 °F 6.8 °F 65% 29.67 in 10.0 mi NNW 17.3 mph 25.3 mph N/A   Overcast
6:12 PM 16.7 °F 0.1 °F 7.7 °F 68% 29.67 in 10.0 mi NNW 19.6 mph 24.2 mph N/A   Overcast
6:32 PM 16.5 °F 0.8 °F 7.3 °F 67% 29.68 in 10.0 mi NNW 17.3 mph 25.3 mph N/A   Overcast
6:52 PM 15.8 °F -0.2 °F 8.4 °F 73% 29.68 in 7.0 mi NW 17.3 mph 23.0 mph N/A   Overcast
7:12 PM 15.8 °F -0.2 °F 7.9 °F 71% 29.68 in 7.0 mi NW 17.3 mph 20.7 mph N/A   Overcast
7:32 PM 15.4 °F -1.1 °F 7.5 °F 71% 29.69 in 10.0 mi NW 18.4 mph 21.9 mph N/A   Overcast
7:52 PM 14.9 °F -0.3 °F 6.8 °F 70% 29.69 in 10.0 mi NW 15.0 mph 24.2 mph N/A   Overcast
8:12 PM 14.9 °F -1.3 °F 6.3 °F 69% 29.69 in 10.0 mi NW 17.3 mph 26.5 mph N/A   Overcast
8:32 PM 14.9 °F 0.3 °F 6.1 °F 68% 29.69 in 10.0 mi NW 13.8 mph 21.9 mph N/A   Overcast
8:52 PM 14.5 °F -1.3 °F 6.6 °F 71% 29.70 in 10.0 mi NW 16.1 mph 20.7 mph N/A   Overcast
9:12 PM 14.5 °F -1.8 °F 5.9 °F 69% 29.70 in 10.0 mi NW 17.3 mph 21.9 mph N/A   Overcast
9:32 PM 14.0 °F 0.5 °F 5.9 °F 70% 29.71 in 10.0 mi NW 11.5 mph 19.6 mph N/A   Overcast
9:52 PM 14.0 °F -0.2 °F 5.9 °F 70% 29.71 in 10.0 mi WNW 12.7 mph 17.3 mph N/A   Overcast
10:12 PM 13.5 °F -2.7 °F 5.0 °F 69% 29.72 in 10.0 mi WNW 16.1 mph 21.9 mph N/A   Overcast
10:32 PM 13.1 °F -2.0 °F 5.0 °F 70% 29.72 in 10.0 mi NW 13.8 mph 19.6 mph N/A   Overcast
10:52 PM 13.1 °F -3.1 °F 4.5 °F 68% 29.72 in 10.0 mi NW 16.1 mph 21.9 mph N/A   Overcast
11:12 PM 12.6 °F -0.6 °F 3.9 °F 68% 29.72 in 10.0 mi NW 10.4 mph - N/A   Overcast
11:32 PM 12.2 °F -1.8 °F 3.2 °F 67% 29.73 in 10.0 mi NW 11.5 mph - N/A   Overcast
11:52 PM 11.5 °F -2.7 °F 2.7 °F 68% 29.74 in 10.0 mi WNW 11.5 mph 21.9 mph N/A   Scattered Clouds